www.pogodaiklimat.ru

Погода и климат >> Архив погоды >> Катар >> Доха


АРХИВ ПОГОДЫ в Дохе

Время (UTC), дата Ветер
(напр.,м/с)
 
Видим.   Явления Облачность Т
(С)
Тd
(С)
f
(%)
Тe
(С)
Тes
(С)
Комфортность P
(гПа)
Po
(гПа)
Тmin
(С)
Tmax
(С)
R
(мм)
R24
(мм)
S
(см)
21 13.08 СВ 2 9000 м н/о +32.8 +27.6 74 +52 +52 опасность
перегрева
997.9 996.6
00 14.08 С 4 н/о н/о +31.9 +27.8 79 +52 +52 опасность
перегрева
997.9 996.6
03 14.08 СВ 6 н/о н/о +32.9 +27.8 75 +53 +53 опасность
перегрева
999.6 998.3
06 14.08 Ю 1 11 км н/о +38.5 +24.9 46 +51 +51 опасность
перегрева
1000.4 999.1 +31.8
09 14.08 С 8 9000 м н/о +38.5 +25.1 47 +52 +52 опасность
перегрева
999.9 998.6
12 14.08 СВ 11 8000 м н/о +37.6 +25.0 49 +51 +51 опасность
перегрева
998.9 997.6
15 14.08 С 7 6000 м н/о +35.5 +27.1 62 +54 +54 опасность
перегрева
998.9 997.6
18 14.08 С 4 н/о н/о +34.0 +28.1 71 +55 +55 опасность
перегрева
1000.3 999.0 +40.3
21 14.08 С 6 4000 м н/о +32.9 +28.3 77 +54 +54 опасность
перегрева
999.7 998.4
00 15.08 С 3 4000 м н/о +32.5 +28.2 78 +54 +54 опасность
перегрева
999.6 998.3
03 15.08 Ю 2 4000 м н/о +32.6 +28.6 80 +55 +55 опасность
перегрева
1000.6 999.3
06 15.08 ЮВ 8 8000 м н/о +36.6 +24.8 51 +50 +50 опасность
перегрева
1001.5 1000.2 +31.9
09 15.08 СВ 8 9000 м н/о +38.6 +22.9 41 +48 +48 опасность
перегрева
1001.1 999.8
12 15.08 В 9 8000 м н/о +37.7 +24.9 48 +50 +50 опасность
перегрева
999.4 998.1
15 15.08 С 6 8000 м н/о +36.3 +25.9 55 +51 +51 опасность
перегрева
999.0 997.7
18 15.08 С 5 6000 м н/о +34.6 +27.4 66 +53 +53 опасность
перегрева
1000.7 999.4 +40.7
21 15.08 С 3 н/о н/о +33.7 +27.8 71 +54 +54 опасность
перегрева
1000.7 999.4
00 16.08 СЗ 4 н/о н/о +33.4 +27.5 71 +53 +53 опасность
перегрева
1000.0 998.7
03 16.08 СЗ 3 3000 м н/о +33.2 +28.2 75 +54 +54 опасность
перегрева
1000.7 999.4
06 16.08 СЗ 5 13 км н/о +38.8 +13.7 23 +39 +39 очень
жарко
1001.7 1000.4 +32.6
09 16.08 С 7 11 км н/о +40.4 +17.5 26 +43 +43 опасность
перегрева
1000.5 999.2
12 16.08 С 10 14 км н/о +39.4 +16.8 27 +42 +42 опасность
перегрева
998.7 997.4
15 16.08 С 8 9000 м н/о +36.3 +23.5 48 +47 +47 опасность
перегрева
998.5 997.2
18 16.08 С 6 14 км н/о +35.1 +25.9 59 +51 +51 опасность
перегрева
999.7 998.4 +40.6
21 16.08 З 6 20 км н/о +35.9 +21.1 42 +43 +43 опасность
перегрева
998.7 997.4
00 17.08 З 7 20 км н/о +34.8 +19.7 41 +40 +40 очень
душно
997.9 996.6
03 17.08 З 10 20 км н/о +35.0 +20.0 42 +41 +41 опасность
перегрева
999.1 997.8
06 17.08 СЗ 12 20 км н/о +40.0 +12.2 19 +39 +39 очень
жарко
1000.1 998.8 +34.3
09 17.08 С 13 20 км н/о +41.5 +13.4 19 +41 +41 опасность
перегрева
999.2 997.9
12 17.08 С 14 20 км н/о +41.6 +13.6 19 +42 +42 опасность
перегрева
997.7 996.4
15 17.08 С 16 20 км н/о +37.7 +20.1 36 +43 +43 опасность
перегрева
997.9 996.6
18 17.08 СЗ 12 20 км н/о +36.0 +14.6 28 +37 +37 душно 999.2 997.9 +43.5
21 17.08 СЗ 5 20 км н/о +33.8 +17.9 39 +38 +38 очень
душно
999.0 997.7
00 18.08 З 5 20 км н/о +33.9 +19.0 41 +39 +39 очень
душно
998.8 997.5
03 18.08 З 5 20 км н/о +34.3 +17.9 38 +38 +38 очень
душно
1000.1 998.8
06 18.08 СЗ 12 20 км н/о +39.2 +10.6 18 +38 +38 очень
жарко
1001.4 1000.1 +33.5
09 18.08 С 11 20 км н/о +41.2 +2.8 9 +38 +38 очень
жарко
1001.2 999.9
12 18.08 С 11 20 км н/о +38.8 +17.8 29 +42 +42 опасность
перегрева
1000.0 998.7
15 18.08 С 12 20 км н/о +35.2 +25.2 56 +49 +49 опасность
перегрева
1000.6 999.3
18 18.08 С 11 20 км н/о +34.3 +24.1 55 +46 +46 опасность
перегрева
1002.3 1001.0 +41.2
21 18.08 С 6 16 км н/о +33.5 +24.9 61 +47 +47 опасность
перегрева
1001.8 1000.5
00 19.08 С 1 13 км н/о +32.1 +25.7 69 +47 +47 опасность
перегрева
1001.0 999.7
03 19.08 З 1 14 км н/о +32.7 +21.7 52 +41 +41 опасность
перегрева
1002.5 1001.2
06 19.08 С 4 14 км н/о +35.0 +23.3 51 +46 +46 опасность
перегрева
1003.9 1002.6 +32.1
09 19.08 СВ 6 12 км н/о +38.1 +19.2 33 +43 +43 опасность
перегрева
1003.4 1002.1
12 19.08 СВ 8 11 км н/о +37.7 +20.9 38 +44 +44 опасность
перегрева
1002.4 1001.1
15 19.08 С 10 7000 м н/о +35.7 +25.9 57 +51 +51 опасность
перегрева
1002.8 1001.5
18 19.08 С 8 6000 м н/о +34.5 +27.7 68 +54 +54 опасность
перегрева
1004.2 1002.9 +38.9
21 19.08 С 8 7000 м н/о +33.9 +27.7 70 +54 +54 опасность
перегрева
1003.8 1002.5
00 20.08 СЗ 7 8000 м н/о +33.6 +27.6 71 +53 +53 опасность
перегрева
1002.8 1001.5
03 20.08 С 4 7000 м н/о +33.6 +27.6 71 +53 +53 опасность
перегрева
1004.2 1002.9
06 20.08 В 5 8000 м н/о +36.2 +25.5 54 +50 +50 опасность
перегрева
1005.7 1004.4 +33.2
09 20.08 В 9 9000 м н/о +38.1 +22.9 42 +48 +48 опасность
перегрева
1004.5 1003.2
12 20.08 СВ 8 12 км н/о +38.5 +21.2 37 +45 +45 опасность
перегрева
1003.2 1001.9
15 20.08 СВ 4 13 км н/о +35.8 +25.2 54 +49 +49 опасность
перегрева
1003.5 1002.2
18 20.08 С 2 10 км н/о +34.8 +26.2 61 +51 +51 опасность
перегрева
1004.4 1003.1 +39.6

 

Местоположение метеостанции Доха (Катар): широта 25.25 долгота 51.57 высота над уровнем моря 10 м.

В архиве по умолчанию представлена погода в Дохе за последнюю неделю. Архивные данные за месяц целиком и за предыдущие месяцы, начиная с января 2011 года, Вы можете получить, выбрав интересующий диапазон дат из раскрывающегося списка и нажав кнопку "Ввод!".


*Определитесь, кто Вы:
робот инопланетянин человек

Внимание! Время в таблицах - всемирное. Для получения местного времени необходимо прибавить поправку, которая равна 4 ч.

Смотрите также архив погоды в соседних городах и на ближайших метеорологических станциях:

Погода в Аэропорту Хамад (Катар) (5 км)
Погода в Доха порту (Катар) (26 км)
Погода в Духане (Катар) (84 км)
Погода в Абу Самба (Катар) (94 км)
Погода в Бахрейне (Бахрейн) (146 км)
Погода в Дахране (Саудовская Аравия) (180 км)
Погода в Эль-Хуфуфе (Саудовская Аравия) (210 км)
Погода в Эд-Даммаме (Саудовская Аравия) (220 км)
Погода на Острове Киш (Иран) (278 км)
Погода в Бендер-Дейере (Иран) (289 км)

Пояснения к столбцам:

Ветер - указаны скорость ветра в м/с - средняя за 10 мин, порывы в срок и между сроками (в фигурных скобках) и направление, откуда дует ветер: С - северный, СВ - северо-восточный, В - восточный, ЮВ - юго-восточный, Ю - южный, ЮЗ - юго-западный, З - западный, СЗ - северо-западный.
Видимость - горизонтальная дальность видимости в метрах или километрах. При видимости от 1 до 10 км при отсутствии осадков обычно наблюдается дымка, при ухудшении видимости до 1 км и менее - туман. В сухую погоду видимость может ухудшаться дымом, пылью или мглою.
Явления - указаны атмосферные явления, наблюдавшиеся в срок или в последний час перед сроком; фигурными скобками обозначены явления, наблюдавшиеся между сроками (за 1-3 часа до срока); квадратными скобками обозначены град или гололедные отложения с указанием их диаметра в мм.
Облачность - указаны через наклонную черту общая и нижняя облачность в баллах и высота нижней границы облаков в метрах; квадратными скобками обозначены формы облаков: Ci - перистые, Cs - перисто-слоистые, Cc - перисто-кучевые, Ac - высококучевые, As - высокослоистые, Sc - слоисто-кучевые, Ns - слоисто-дождевые, Cu - кучевые, Cb - кучево-дождевые. Подробнее классификацию облаков см. в Атласе облаков (PDF).
T - Температура воздуха - температура, измеренная на высоте 2 м над землей.
Td - Температура точки росы - температура, при понижении до которой содержащийся в воздухе водяной пар достигнет насыщения.
f - Относительная влажность воздуха - влажноcть воздуха, измеренная на высоте 2 м над землей.
Te - Эффективная температура - температура, которую ощущает одетый по сезону человек в тени. Характеристика душности погоды. При расчете учитывается влияние влажности воздуха и скорости ветра на теплоощущения человека.
Tes - Эффективная температура на солнце - температура, которую ощущает человек, с поправкой на солнечный нагрев. Характеристика знойности погоды. Зависит от высоты солнца над горизонтом, облачности и скорости ветра. Ночью, в пасмурную погоду, а также при ветре 12 м/с и более поправка равна нулю.
P - Атмосферное давление - приведенное к уровню моря атмосферное давление.
Po - Атмосферное давление - измеренное на уровне метеостанции атмосферное давление.
Tmin - Минимальная температура - минимум температуры воздуха на высоте 2 м над землей.
Tmax - Максимальная температура - максимум температуры воздуха на высоте 2 м над землей.
R - Количество осадков - Количество выпавших осадков за период времени, мм. При наведении курсора мыши на число - период времени, за который выпало указанное количество осадков.
R24 - Количество осадков - Количество выпавших осадков за 24 часа, мм.
S - Снежный покров - Высота снежного покрова, см. При наведении курсора мыши на число - состояние снежного покрова и степень покрытия местности в баллах.